Regional Weather Roundup
Issued by NWS

Home | Current Version | Previous Version | Text Only | Print | Product List | Glossary Off
Versions: 1 2 3 4 5 6 7 8 9 10 11 12 13 14 15 16 17 18 19 20 21 22 23 24 25 26 27

000
ASUS45 KBOU 191507
RWRCO

WEATHER ROUNDUP FOR COLORADO
NATIONAL WEATHER SERVICE DENVER/BOULDER CO
800 AM MST THU JAN 19 2017

NOTE: "FAIR" INDICATES FEW OR NO CLOUDS BELOW 12000 FEET WITH NO
SIGNIFICANT WEATHER AND/OR OBSTRUCTIONS TO VISIBILITY.

COZ001>005-013-030-031-191600-
...NORTHWEST COLORADO...

CITY           SKY/WX    TMP DP  RH WIND       PRES   REMARKS
CRAIG          FAIR       2  -4  76 CALM      29.84F
HAYDEN         FAIR      14   7  73 E8        29.82S WCI   3
MEEKER         FAIR      13   9  84 CALM      29.83F
MOUNT WERNER   NOT AVBL
STEAMBOAT SPGS FAIR       5   2  88 CALM      29.83S
WALDEN           N/A    N/A N/A N/A CALM      29.81S
$$

COZ006>008-011-191600-
...WEST CENTRAL VALLEYS...

CITY           SKY/WX    TMP DP  RH WIND       PRES   REMARKS
GRAND JUNCTION FAIR      26  24  92 E15       29.86S WCI  14
MONTROSE       FAIR      24  19  81 SE5       29.91S WCI  18
EAGLE          CLOUDY     9   5  85 E5        29.94S FOG     WCI   0
RIFLE          FAIR      19  16  88 CALM      29.89F
DELTA          FAIR      28  22  79 NE7       29.92S WCI  20
NUCLA          FAIR      27  19  74 E10       29.92S WCI  17
$$

COZ017>023-064>068-191600-
...SOUTHWEST COLORADO...

CITY           SKY/WX    TMP DP  RH WIND       PRES   REMARKS
DURANGO        FOG       26  24  92 CALM      29.92R VSB 1/4
CORTEZ         FAIR      21  19  92 E6        29.92S WCI  13
PAGOSA SPRINGS FAIR      21  20  97 CALM      29.92R
TELLURIDE      FAIR      20   9  62 SE9       29.88F WCI   9
WOLF CREEK PAS   N/A     16  14  93 S8        29.92S WCI   5
$$

COZ009-010-012-014-032>034-037-058>063-191600-
...CENTRAL COLORADO...

CITY           SKY/WX    TMP DP  RH WIND       PRES   REMARKS
ASPEN          FAIR       6   2  83 CALM      29.83S
BUENA VISTA    FAIR       7   4  85 E3        29.78R
COPPER MTN     FAIR      25   1  36 MISG      29.84F
BERTHOUD PASS  NOT AVBL
COTTONWOOD PAS FAIR      32   5  32 W12G24    29.77F WCI  23
GUNNISON       LGT SNOW   0  -3  87 CALM      29.98S FOG
KREMMLING      HAZE       7   1  78 CALM      29.92F VSB 3/4
LEADVILLE      FAIR      12   3  67 N6        29.80F WCI   3
MONARCH PASS   FAIR      18  10  73 W8        29.93S WCI   7
SALIDA         FAIR      28  16  60 W14       29.85S WCI  17
SUNLIGHT       FAIR      16  10  79 S13       29.87F WCI   2
WILKERSON PASS FAIR      30   0  27 NW13G26   29.80F WCI  20
$$

COZ069>075-191600-
...SAN LUIS VALLEY/SANGRE DE CRISTO MOUNTAINS...

CITY           SKY/WX    TMP DP  RH WIND       PRES   REMARKS
ALAMOSA        FOG       20  19  96 W7        29.88S VSB 1   WCI  11
LA VETA PASS   FOG       16  12  86 NE32G43   29.75R VSB 3/4 WCI  -5
SAGUACHE       CLOUDY    18  16  93 CALM      29.89R FOG
$$

COZ035-036-038>040-191600-
...NORTHERN COLORADO FRONT RANGE...

CITY           SKY/WX    TMP DP  RH WIND       PRES   REMARKS
DENVER INTL AP FAIR      24  16  71 S9        29.60F WCI  14
DMNS CITY PARK   N/A     31  13  48 SE8       29.62R WCI  23
AURORA         PTCLDY    31  14  49 S12       29.62R WCI  22
FRONT RANGE AP CLEAR     28  18  64 SE7       29.61F WCI  21
ERIE MUNI ARPT FAIR      21  18  88 CALM      29.61R
BOULDER MUN AP FAIR      32  18  55 NW5       29.61R WCI  27
CENTENNIAL     FAIR      26  14  60 SE5       29.61S WCI  20
BROOMFIELD     CLEAR     34  16  47 CALM      29.61S
FORT COLLINS   FAIR      23  18  80 N3        29.62S
LONGMONT       FAIR      23  17  78 W6        29.63S WCI  16
$$

COZ041-046-047-076>085-087-088-191600-
...PIKES PEAK/PALMER DIVIDE AND SOUTHERN FOOTHILLS...

CITY           SKY/WX    TMP DP  RH WIND       PRES   REMARKS
COLO. SPRINGS  FAIR      34  11  38 CALM      29.65S
A. F. ACADEMY  FAIR      30  11  45 N5        29.65R WCI  25
SCHRIEVER AFB  NOT AVBL
ELLICOTT       FAIR     N/A N/A N/A N7        29.64R
FALCON         FAIR      34  11  38 W6        29.67R WCI  29
FORT CARSON    CLEAR     34  14  44 N3        29.66R
LIMON          FAIR      25  17  72 NW5       29.63R WCI  19
MONUMENT HILL  FAIR      27  10  50 MISG      29.66S
TRINIDAD       FAIR      24  13  62 W14       29.66R WCI  12
$$

COZ042>045-048>051-090-091-191600-
...NORTHEAST COLORADO...

CITY           SKY/WX    TMP DP  RH WIND       PRES   REMARKS
GREELEY ARPT   NOT AVBL
AKRON          FAIR      28  19  69 W13       29.59S WCI  17
BURLINGTON     FAIR      26  21  81 W7        29.60R WCI  18
WRAY           FAIR      21  18  86 W6        29.61S WCI  14
STERLING       FAIR      18  16  93 S5        29.60F WCI  11
HOLYOKE        FAIR      32  23  69 CALM      29.61R
FORT MORGAN    FAIR      22  19  88 W9        29.61S WCI  12
$$

COZ086-089-092>099-191600-
...SOUTHEAST COLORADO...

CITY           SKY/WX    TMP DP  RH WIND       PRES   REMARKS
PUEBLO         FAIR      26  20  77 W5        29.64R WCI  20
LA JUNTA       FAIR      22  18  85 W16       29.63R WCI   8
LAMAR          FAIR      21  18  88 W9        29.61S WCI  11
SPRINGFIELD      N/A     31  24  75 NW14      29.58S WCI  21
$$




USA.gov is the U.S. government's official web portal to all federal, state and local government web resources and services.